Lapse_Rate
7.0 6.8 6.8 6.9 6.8 6.1 5.2 5.3 5.2 5.4 5.6 5.9 5.7 5.1 5.0 4.8 4.1 4.2 4.4 4.4 4.5 4.5 4.7 4.9 5.1 5.2 5.0 5.2 5.4 5.9 5.9 6.1
7.3 6.9 6.9 7.1 7.1 6.4 4.9 5.1 5.4 5.5 5.9 5.7 5.1 5.1 5.1 4.7 4.0 4.2 4.1 4.3 4.2 4.3 4.8 5.0 5.1 5.0 5.4 5.6 6.1 6.1 6.3 6.1
7.4 7.1 7.1 7.1 7.2 6.8 5.7 5.5 5.6 5.7 5.6 5.8 5.4 5.0 5.0 5.0 4.7 4.4 4.1 4.4 4.4 4.8 4.9 4.9 4.9 5.1 5.6 5.9 6.2 6.3 6.2 6.1
7.6 7.2 7.2 7.0 7.2 7.2 6.2 6.1 5.6 5.6 5.6 5.6 5.5 5.1 5.0 4.9 5.0 5.1 4.7 4.7 4.9 5.0 5.0 4.8 5.1 5.8 6.1 6.2 6.4 6.1 6.0 6.1
7.6 7.5 7.2 7.2 7.2 7.3 6.6 6.2 6.1 5.8 5.5 5.2 5.3 5.5 5.4 5.2 5.1 5.0 4.8 4.9 5.2 5.1 4.9 5.2 5.6 6.0 6.2 6.3 6.1 6.1 6.1 6.1
7.6 7.5 7.6 7.4 7.3 7.4 7.2 6.8 6.5 5.8 5.7 5.6 5.6 5.5 5.3 5.2 5.2 5.3 5.1 5.4 4.8 4.8 5.1 5.5 6.0 6.0 6.1 5.9 6.0 6.0 6.1 5.9
7.8 7.6 7.8 7.7 7.6 7.5 7.4 7.3 6.9 6.3 5.8 5.7 5.7 5.6 5.5 5.6 5.5 5.3 5.1 5.2 5.3 5.5 5.6 5.7 5.9 6.0 6.3 6.2 6.1 6.1 6.1 5.9
8.0 7.9 7.9 7.9 7.9 7.7 7.7 7.6 7.5 7.3 7.0 6.4 5.9 5.5 5.3 5.5 5.5 5.7 5.5 5.4 5.6 5.7 5.6 5.6 5.9 6.0 6.0 5.9 5.9 5.9 5.8 5.5
8.1 8.1 8.1 8.1 8.0 7.9 7.8 7.7 7.6 7.5 7.4 7.3 7.2 6.6 6.1 5.7 5.5 5.4 5.3 5.4 5.6 5.5 5.4 5.5 5.7 5.9 6.0 6.0 6.0 6.0 5.9 5.9
8.1 8.3 8.2 8.2 8.2 8.1 7.8 7.7 7.7 7.6 7.4 7.4 7.3 7.2 7.1 7.1 6.9 6.8 6.7 6.5 6.3 6.1 6.2 6.2 6.1 6.1 6.3 6.2 6.2 6.1 6.0 6.0
8.2 8.2 8.2 8.3 8.0 7.9 8.0 8.0 7.9 7.7 7.7 7.6 7.5 7.4 7.4 7.2 7.1 7.1 7.0 6.9 6.9 6.7 6.7 6.7 6.6 6.4 6.2 6.0 6.1 6.2 6.0 6.0
8.5 8.4 8.2 8.1 7.9 8.0 8.0 8.0 8.1 8.1 8.1 8.0 7.8 7.6 7.4 7.2 7.2 7.1 7.3 7.2 6.9 6.9 6.8 6.9 6.8 6.5 6.3 6.1 6.0 5.8 6.0 5.8
8.6 8.5 8.4 8.3 8.1 8.0 8.1 8.0 8.1 8.1 8.2 8.1 8.1 7.6 7.1 7.0 6.8 7.0 7.0 7.4 7.5 7.3 6.9 6.8 6.8 6.5 6.3 6.1 6.0 5.8 6.1 6.2
8.6 8.6 8.6 8.6 8.4 8.1 8.0 8.0 8.1 8.1 7.9 8.0 7.6 7.4 7.3 7.1 6.7 6.7 6.9 6.9 6.9 6.8 6.6 6.5 6.2 6.3 6.1 6.4 6.0 6.0 6.4 6.6
8.6 8.6 8.6 8.6 8.5 8.4 8.5 8.3 8.2 8.2 8.1 7.9 7.9 7.6 7.2 7.1 7.1 7.1 7.1 6.9 6.8 6.9 6.7 6.6 6.2 6.3 6.5 6.7 6.4 6.1 6.4 6.7
8.9 8.6 8.6 8.8 8.6 8.4 8.5 8.7 8.7 8.5 8.2 8.0 8.0 7.7 7.4 6.9 6.8 7.1 7.2 7.0 7.0 7.1 6.8 6.7 6.7 6.7 6.7 6.7 6.5 6.3 6.3 6.5
8.9 8.6 8.7 8.7 8.9 8.7 8.5 8.8 8.8 8.7 8.5 8.4 8.2 8.0 7.7 7.4 7.2 7.1 7.0 7.1 7.1 7.2 7.0 6.9 6.8 6.7 6.7 6.6 6.5 6.5 6.6 6.5
8.7 8.8 8.6 9.0 8.8 8.9 8.7 8.8 8.8 8.7 8.7 8.4 8.1 7.9 7.7 7.5 7.3 7.1 7.1 7.0 6.8 6.8 6.8 6.8 6.8 6.6 6.5 6.4 6.4 6.5 6.6 6.7
8.5 8.5 8.6 8.5 8.7 8.8 8.9 9.0 8.9 8.8 8.6 8.2 8.2 7.9 7.5 7.4 7.3 7.2 7.1 7.0 7.0 6.9 6.8 6.8 6.7 6.7 6.7 6.7 6.7 6.6 6.5 6.2
Wind_Speed
12 10 9 10 9 10 10 9 10 8 6 6 5 7 5 9 13 15 14 14 16 16 15 15 13 8 7 6 7 5 6 7
12 11 10 9 10 10 11 12 11 8 7 7 6 6 5 5 8 12 13 15 15 14 12 16 12 9 10 9 7 8 5 5
13 12 12 11 11 11 11 12 14 10 7 3 5 5 3 4 6 9 14 16 14 13 11 10 14 9 10 10 9 6 5 8
14 14 13 12 13 12 11 13 14 12 9 6 5 5 4 4 3 3 12 14 14 15 16 14 13 11 8 10 11 10 8 6
15 16 16 15 14 11 14 13 13 13 12 10 13 13 10 9 9 7 10 13 16 19 19 15 14 12 9 10 10 9 6 7
19 19 18 16 14 13 12 15 15 15 16 14 11 11 8 10 11 15 15 13 18 19 19 17 13 11 11 11 9 11 9 7
17 16 16 16 15 13 13 16 16 17 17 17 14 15 13 10 13 13 11 10 10 17 18 16 16 12 10 10 12 13 11 10
17 18 18 18 19 19 15 18 18 18 17 14 16 15 15 15 15 12 12 10 9 11 12 11 9 13 14 15 11 12 12 12
20 20 19 19 19 19 20 20 19 18 19 18 15 16 10 9 11 9 8 9 9 9 9 13 16 17 16 16 10 10 12 11
20 19 18 18 19 21 21 21 19 19 19 16 16 15 16 13 12 11 8 10 8 10 12 13 14 13 16 13 10 12 12 11
16 17 19 17 16 18 20 20 21 20 19 17 16 17 16 14 12 13 12 11 12 12 12 14 14 14 12 13 10 12 10 8
13 15 16 16 16 17 18 19 20 19 19 18 17 15 16 14 13 13 14 13 14 14 13 13 13 13 12 11 11 10 12 11
13 14 15 16 17 17 18 17 18 17 16 16 16 16 17 17 18 20 15 14 12 12 12 12 14 14 10 11 10 8 10 10
11 14 15 16 17 17 18 18 17 16 16 15 15 17 16 17 20 15 14 14 13 13 13 15 15 13 13 10 11 11 11 10
11 13 15 16 16 17 18 17 16 16 17 17 16 16 17 17 14 9 12 13 14 14 13 13 13 13 12 10 11 10 9 9
12 13 13 14 15 16 16 15 16 16 17 17 19 17 16 16 13 12 11 12 12 13 13 13 12 10 8 10 9 8 8 7
9 11 12 14 16 16 14 15 16 16 17 18 17 16 16 15 13 10 9 9 11 12 12 11 9 7 9 12 11 8 9 9
8 11 13 13 15 15 16 16 15 16 17 16 15 15 15 13 10 6 7 8 5 5 4 5 4 3 7 9 9 7 8 9
12 8 8 8 10 13 13 14 16 16 16 15 14 13 10 7 7 6 5 4 4 4 4 5 6 5 11 13 14 11 10 10
Wind_Direction
199 189 186 187 187 172 157 157 158 144 114 114 117 126 110 131 148 155 156 145 149 142 151 146 124 132 168 154 154 171 197 180
200 177 185 182 187 178 164 157 164 153 148 152 137 142 155 142 121 145 155 159 160 151 174 123 149 183 178 167 179 185 190 184
192 181 185 185 190 183 170 169 168 165 162 137 157 139 136 139 125 143 175 165 163 170 153 169 178 186 182 177 186 183 192 186
189 186 182 183 190 188 170 171 171 165 153 125 120 112 112 140 168 218 172 175 182 177 187 186 189 196 190 190 205 199 201 190
191 188 183 184 190 181 177 172 176 167 156 162 166 180 170 177 185 192 212 212 195 199 198 193 198 201 202 203 213 214 202 202
192 194 193 186 183 181 174 177 180 176 174 174 171 176 182 175 183 193 205 204 206 202 204 198 205 202 212 207 208 215 215 211
197 187 182 188 186 183 183 186 186 182 183 187 185 188 184 176 185 192 201 201 202 204 204 205 209 209 210 211 216 220 220 222
194 185 183 183 184 186 183 187 190 188 186 188 192 196 194 193 192 197 193 196 204 205 201 211 214 219 221 224 224 223 223 222
198 194 187 184 183 185 188 191 192 191 189 190 192 197 199 198 191 196 203 209 210 202 208 219 223 224 226 229 233 233 230 233
202 191 193 189 183 186 189 191 194 194 193 192 193 196 204 202 195 196 202 209 208 207 215 218 226 228 228 225 225 231 227 228
197 195 193 193 191 187 188 192 194 193 192 194 196 199 202 207 207 210 206 208 206 210 212 217 220 223 224 223 230 236 227 223
203 200 193 192 188 190 192 191 190 191 193 193 194 197 202 207 214 218 218 219 217 218 220 225 227 226 218 212 217 217 215 226
194 197 190 190 193 193 200 195 196 189 184 185 191 193 198 206 216 220 220 228 228 230 228 230 233 223 206 205 225 228 222 220
185 186 190 196 196 196 200 201 198 190 187 184 193 202 207 213 220 216 219 221 218 215 217 222 228 228 222 218 217 214 214 216
187 192 190 196 198 200 198 201 199 192 189 194 200 204 208 219 230 218 216 221 226 224 221 224 228 228 217 210 209 213 208 215
196 197 200 191 194 200 202 197 195 194 193 197 207 209 214 228 226 218 210 209 222 227 233 234 230 218 207 195 201 190 178 156
220 191 189 196 195 196 196 199 192 191 199 206 206 212 213 221 224 224 204 207 219 224 223 216 202 206 200 184 172 169 157 148
237 213 199 193 191 185 191 192 185 191 200 203 205 209 216 218 216 183 191 203 191 195 178 161 155 129 142 143 126 132 130 120
242 226 223 187 167 175 166 173 183 189 196 198 195 193 191 153 155 167 143 136 138 120 110 107 100 84 102 105 101 103 98 95